Location: Kuppenheim
(48.8299°N, 8.2568°E)
Time: 10:06:46
(UTC+00:00)

Meteor 1-26 Rocket - Pass Details

Date: 20 June 2021
Orbit: 807 x 928 km, 81.3° (Epoch: 01 August)

Event Time Altitude Azimuth Distance (km) Brightness Sun altitude
Rises 01:46:54 0° 347° (NNW) 3,484 8.1 -11.4°
Reaches altitude 10° 01:49:19 10° 348° (NNW) 2,559 7.4 -11.2°
Maximum altitude 01:55:11 87° 262° (W) 913 4.4 -10.7°
Drops below altitude 10° 02:01:10 10° 172° (S) 2,607 6.3 -10.1°
Enters shadow 02:03:17 - 172° (S) 3,413 6.9 -9.9°
